CAPE
2 2 1 1 1 0 0 1 1 0 0 0 0 0 1 1 0 0 0 0 0 0 0 0 0 0 0 0 0 0 0 0 0 0 0 0 0 116 488 690 320 1288 1652 188 983 941 1005 1608 2146 2212 1678 1380 1619 1166 1480 1215 1416 1880 938 848 515 339 232 995 880 705 510 811 237 475 580 406 580 447 204 438 452 284 349 350 543 751 548 587 677 690 688 626
2 2 2 1 1 0 0 1 1 1 1 0 0 0 1 0 0 0 0 0 0 0 0 0 0 0 0 0 0 0 0 0 0 0 0 409 14 248 388 544 924 1248 1919 100 743 974 1025 970 1532 2053 1438 1241 656 1485 973 1760 1242 990 490 350 678 578 602 1539 1608 1213 1112 692 448 618 453 310 237 344 338 428 138 283 160 364 752 1080 844 730 734 676 681 666
3 3 2 2 1 1 0 0 1 1 1 0 0 0 0 0 0 0 1 0 0 0 0 0 0 0 0 0 0 0 0 0 0 0 0 352 445 252 358 498 669 909 90 388 621 984 1413 1121 1198 1404 1416 1696 1157 1156 1402 1520 834 732 405 784 581 944 920 1650 1950 1722 1200 1294 1226 363 360 434 222 267 156 548 336 299 226 524 712 618 1026 836 651 630 611 578
3 4 3 2 2 2 1 0 1 1 1 0 0 0 0 0 0 0 0 0 0 0 0 0 0 0 0 0 0 0 0 0 0 0 0 538 138 487 633 255 631 910 7 237 409 546 821 888 1023 866 1788 1220 557 1670 1308 721 1638 647 553 787 750 1270 810 1654 1979 1459 1184 1279 1046 355 272 210 362 195 190 160 338 548 286 378 647 623 762 738 717 670 449 392
0 2 2 2 2 2 1 0 1 1 1 1 1 0 0 0 0 0 0 0 0 0 0 0 0 0 0 0 0 0 0 0 0 0 14 0 634 309 694 452 757 318 32 295 352 541 720 1059 1227 1078 810 853 688 1099 679 1590 729 571 830 1178 1105 1022 926 781 1579 1163 1259 1468 924 347 512 140 278 320 342 398 220 220 122 280 680 652 708 624 596 456 453 438
0 1 1 0 1 2 1 1 0 2 2 2 0 0 0 0 0 0 0 0 0 0 0 0 0 0 0 0 0 0 0 0 0 0 10 316 74 560 728 693 978 161 170 374 354 529 759 1264 1078 1533 1044 656 562 757 754 1181 487 846 1154 1508 1159 1210 1276 892 1245 917 1520 1639 1301 1142 711 722 222 308 267 235 67 92 239 532 611 585 641 682 562 502 380 348
2 1 1 1 0 1 2 1 1 1 2 1 1 0 0 0 0 0 0 1 0 0 0 0 0 0 0 0 0 0 0 0 0 0 1221 1150 374 430 935 1250 1650 512 225 311 278 401 604 955 701 1036 749 834 883 669 258 1311 882 969 794 1040 1404 2194 1973 1475 1060 902 687 1600 1678 1657 1318 759 374 449 530 370 30 15 161 530 472 564 564 563 528 528 312 248
1 2 1 1 1 1 1 2 1 0 1 1 1 0 0 0 0 0 0 0 0 0 0 0 0 0 0 0 0 0 0 0 13 0 1266 869 265 445 1043 74 10 59 246 409 269 484 739 660 789 503 300 94 414 661 774 924 650 1036 1047 1304 1126 2028 1638 1146 1043 343 1312 1214 1401 1253 1514 1053 1059 1020 134 438 598 26 161 470 408 507 462 538 621 562 300 215
2 2 2 2 1 1 1 1 2 2 0 0 0 1 0 0 0 0 0 0 0 0 0 0 0 0 0 0 0 0 0 0 0 223 458 235 0 0 0 0 0 97 278 330 211 350 648 575 367 450 311 195 362 657 452 308 641 831 818 1173 1544 1770 1042 836 1334 1622 842 1763 1567 1746 994 974 1336 1390 846 666 285 24 94 285 490 545 545 595 636 632 615 366
3 2 2 2 2 1 1 2 1 1 1 0 2 0 0 0 0 0 0 0 0 0 0 0 0 0 0 0 0 0 0 0 0 2 0 0 0 0 0 0 1 150 226 280 215 328 604 823 741 262 222 212 396 163 187 217 505 443 1028 1504 1744 1388 1702 1049 1088 1832 1058 1643 1278 1752 1199 1816 1108 1338 1104 596 166 122 62 142 374 390 480 462 466 636 654 653
4 3 2 3 2 2 1 1 1 1 2 2 1 0 0 0 0 0 0 0 0 0 0 0 0 0 0 0 0 0 0 0 0 0 0 0 0 0 0 0 1 92 216 176 233 432 281 442 317 190 232 334 99 164 518 116 220 395 876 946 1180 941 1644 1640 1598 1946 1301 1459 1291 1819 2146 1774 1410 624 1079 409 222 172 38 102 297 399 488 354 456 546 620 615
3 3 2 2 2 2 1 1 2 1 1 2 2 0 0 0 0 0 0 0 0 0 0 0 0 0 0 0 0 0 0 0 0 0 0 0 0 0 0 0 9 61 172 204 268 269 335 354 380 222 238 131 96 163 84 454 544 424 536 642 563 724 856 420 567 503 783 1750 1518 1832 1402 1191 1235 702 487 455 254 604 144 95 141 316 442 388 328 469 534 580
2 2 4 3 4 2 2 1 2 2 1 2 2 0 0 0 0 0 0 0 0 0 0 0 0 0 0 0 0 0 0 0 0 0 0 0 0 0 0 0 1 77 149 184 234 358 371 346 308 248 230 270 142 279 52 199 485 666 762 410 729 540 841 661 567 679 344 1792 1828 2021 880 504 627 543 630 350 1030 1308 512 253 56 306 369 408 310 389 460 410
3 2 2 4 2 2 1 2 1 2 1 2 2 0 0 0 0 0 0 0 0 0 0 0 0 0 0 0 0 0 0 0 0 0 0 0 0 0 0 0 0 129 252 228 287 294 366 422 371 274 145 35 126 50 34 246 192 406 761 400 324 331 306 412 514 476 777 1673 1683 948 869 472 917 909 868 748 1322 1244 1053 685 20 90 255 330 456 333 491 438
3 4 6 4 4 2 2 2 2 1 2 1 0 0 0 0 0 0 0 0 0 0 0 0 0 0 0 0 0 0 0 0 0 0 0 0 0 0 0 0 0 60 195 233 294 374 367 353 342 352 241 180 113 44 65 424 692 630 584 434 282 301 207 398 430 484 708 1167 812 1063 519 286 460 526 932 904 1373 1180 939 930 661 62 163 336 445 344 505 369
3 4 8 7 4 2 2 1 3 2 2 2 0 0 0 0 0 0 0 0 0 0 0 0 0 0 0 0 0 0 0 0 0 0 0 0 0 0 0 0 0 22 13 105 301 244 234 275 217 174 179 103 121 29 165 186 469 288 430 252 209 218 446 295 208 701 597 1091 1160 1204 700 243 570 397 780 946 1594 853 987 1000 606 642 118 236 327 430 560 368
4 6 8 6 5 4 2 2 3 3 2 1 0 0 0 0 0 0 0 0 0 0 0 0 0 0 0 0 0 0 0 0 0 0 0 0 0 0 0 0 0 0 0 39 187 129 83 89 74 42 16 0 23 47 486 296 71 368 142 183 392 166 156 182 209 562 609 676 871 676 550 352 429 249 405 566 1126 1140 974 1032 1180 925 47 248 304 338 368 351
6 8 6 6 5 6 5 3 3 3 2 0 0 0 0 0 0 0 0 0 0 0 0 0 0 0 0 0 0 0 0 0 0 0 0 0 0 0 0 0 0 0 0 2 4 14 48 27 16 38 38 83 29 1 110 409 382 55 191 222 400 102 96 128 178 196 154 218 472 450 390 305 371 512 515 412 788 1070 934 1632 1138 682 409 252 206 274 373 528
4 4 4 6 6 6 2 2 2 3 0 0 0 0 0 0 0 0 0 0 0 0 0 0 0 0 0 0 0 0 0 0 0 0 0 0 0 0 0 0 0 0 0 0 0 0 0 10 32 35 22 18 38 46 70 500 46 32 206 12 282 124 14 49 128 292 164 272 529 498 412 215 326 704 642 606 442 865 1347 1146 1186 1188 622 366 182 257 300 494
4 5 5 6 7 5 2 2 2 1 0 0 0 0 0 0 0 0 0 0 0 0 0 0 0 0 0 0 0 0 0 0 0 0 0 0 0 0 0 0 0 0 0 0 0 0 0 5 13 24 38 55 20 36 44 11 92 36 130 37 121 82 88 122 272 548 481 708 406 266 110 108 362 524 583 347 362 366 1432 1053 982 988 1208 1082 132 173 397 375
4 4 6 4 5 7 2 3 2 0 0 0 0 0 0 0 0 0 0 0 0 0 0 0 0 0 0 0 0 0 0 0 0 0 0 0 0 0 0 0 0 0 0 0 0 0 0 1 39 50 39 19 49 13 13 26 5 56 46 78 62 48 68 177 256 689 968 313 389 462 408 43 26 381 476 400 323 321 732 1021 875 890 979 925 1083 179 259 384
2 4 4 4 3 3 3 1 2 0 0 0 0 0 0 0 0 0 0 0 0 0 0 0 0 0 0 0 0 0 0 0 0 0 0 0 0 0 0 0 0 0 0 0 0 0 1 24 11 26 64 50 59 60 48 52 60 80 65 18 98 236 38 82 163 39 142 51 27 50 220 160 28 418 598 661 440 437 374 1122 1096 912 1321 1437 911 967 212 347
1 2 2 2 2 0 2 2 0 0 0 0 0 0 0 0 0 0 0 0 0 0 0 0 0 0 0 0 0 0 0 0 0 0 0 0 0 0 0 0 0 0 0 0 0 0 0 22 91 57 36 35 23 62 125 107 44 6 6 102 44 82 16 488 138 48 626 48 2 65 0 0 92 337 638 921 715 608 501 667 1598 1272 928 831 676 1250 155 218
1 1 2 2 2 1 0 2 0 0 0 0 0 0 0 0 0 0 0 0 0 0 0 0 0 0 0 0 0 0 0 0 0 0 0 0 0 0 0 0 0 0 0 0 0 0 0 0 22 90 10 0 1 45 57 64 0 0 2 42 118 52 6 1 97 179 347 67 10 0 0 0 804 410 460 844 790 775 503 326 1695 1558 979 976 1621 920 424 699
0 0 1 2 0 3 0 0 0 0 0 0 0 0 0 0 0 0 0 0 0 0 0 0 0 0 0 0 0 0 0 0 0 0 0 0 0 0 0 0 0 0 0 0 0 0 0 0 0 0 0 30 35 48 36 1 0 0 4 31 61 96 146 0 40 71 62 139 255 56 57 14 160 725 583 925 1070 641 402 468 1434 1209 1299 1429 1414 1813 1131 259
0 1 0 0 2 0 1 0 0 0 0 0 0 0 0 0 0 0 0 0 0 0 0 0 0 0 0 0 0 0 0 0 0 0 0 0 0 0 0 0 0 0 0 0 0 0 0 0 0 0 0 0 4 32 76 0 0 0 30 45 40 20 25 0 0 0 6 74 574 167 0 38 14 480 826 897 865 1002 696 584 350 814 1191 1287 1835 2039 1710 977
0 0 0 0 0 0 0 0 0 0 0 0 0 0 0 0 0 0 0 0 0 0 0 0 0 0 0 0 0 0 0 0 0 0 0 0 0 0 0 0 0 0 0 0 0 0 0 0 0 0 0 0 0 0 0 0 0 0 0 64 41 36 2 0 0 0 2 11 522 44 3 0 1 0 598 1155 869 1028 1220 637 476 878 847 620 1753 1492 1503 1092
0 0 0 0 0 0 0 0 0 0 0 0 0 0 0 0 0 0 0 0 0 0 0 0 0 0 0 0 0 0 0 0 0 0 0 0 0 0 0 0 0 0 0 0 0 0 0 0 0 0 3 0 0 0 0 0 0 0 0 20 12 23 16 0 0 0 0 1 18 0 2 0 2 186 434 296 475 1214 1347 1084 774 574 466 440 1309 874 1152 978
0 0 0 0 0 0 0 0 0 0 0 0 0 0 0 0 0 0 0 16 0 0 0 0 0 0 0 0 0 0 0 0 0 0 0 0 0 0 0 0 0 0 0 0 0 0 0 0 0 0 0 0 3 0 0 0 0 0 0 4 20 3 1 0 0 0 30 0 3 0 0 1 57 0 0 408 995 1076 1406 1489 1082 616 583 597 518 927 889 815
0 0 0 0 0 0 0 0 0 0 0 0 0 0 0 0 0 0 1 0 0 0 0 0 0 0 0 0 0 0 0 0 0 0 0 0 0 0 0 0 0 0 0 0 0 0 0 2 0 5 0 0 0 0 0 0 0 0 1 16 19 25 8 0 1 42 2 0 17 0 0 22 0 0 0 1 62 1232 1219 1497 1118 550 529 760 469 468 764 750
0 0 0 0 0 0 0 0 0 0 0 0 0 0 0 0 0 0 2 0 0 0 0 0 0 0 0 0 0 7 1 1 0 0 0 0 0 0 0 0 0 0 0 0 0 0 0 0 0 0 0 0 0 0 0 0 0 0 0 34 4 0 0 0 0 1 2 20 28 8 0 0 1 2 0 0 0 42 967 1380 1642 1042 638 580 576 356 571 720
0 0 0 0 0 0 0 0 0 0 0 0 0 0 0 0 1 0 0 0 0 0 0 0 0 0 0 0 0 1 9 1 8 2 2 0 0 0 0 0 0 0 0 0 1 9 19 0 0 0 0 0 14 17 2 0 0 0 0 0 6 42 15 43 16 150 92 88 58 21 8 20 0 3 0 0 0 296 684 1096 1359 1204 701 714 491 371 495 531
0 0 0 0 0 0 0 0 0 0 0 0 0 0 0 0 73 0 0 0 0 0 0 0 0 0 0 0 0 0 2 4 1 11 0 2 0 0 0 0 0 0 4 0 0 0 14 0 0 0 0 0 0 0 0 0 0 0 0 0 1 0 38 27 57 104 72 37 98 11 75 35 0 20 0 0 1 760 460 1109 1106 891 1159 992 686 512 312 709
0 0 0 0 0 0 0 0 0 0 0 0 0 0 0 26 0 0 0 0 0 0 0 0 0 0 0 0 0 1 0 3 2 2 0 3 0 0 0 0 0 0 0 0 0 0 0 301 28 2 0 0 4 0 0 0 0 1 0 0 0 0 44 107 23 14 157 14 0 29 0 126 64 12 0 0 3 788 514 482 807 1238 1254 1316 994 590 387 358
0 0 0 0 0 0 0 0 0 0 0 0 0 0 11 0 0 0 0 0 0 0 0 0 0 0 0 2 0 2 0 0 0 1 2 0 3 0 0 0 0 0 0 0 0 0 6 3 0 0 2 0 0 0 0 0 0 0 0 0 0 0 0 2 153 25 10 42 75 107 106 60 30 0 0 3 0 2 3 1640 1222 1356 1135 1234 1006 726 390 275
0 0 0 0 0 0 0 0 0 0 0 0 0 2 0 0 0 0 0 0 0 0 0 0 0 0 0 1 4 1 0 0 0 0 0 3 0 0 16 34 9 0 0 0 2 0 0 30 4 4 0 0 0 0 0 0 0 0 0 0 0 0 0 2 0 0 0 0 0 16 121 3 0 0 0 0 0 8 0 61 641 1399 890 769 750 461 285 274
0 0 0 0 0 0 0 0 0 0 0 0 0 0 0 0 0 0 0 0 0 0 0 0 0 0 0 0 10 0 5 0 4 0 0 0 2 0 15 32 70 0 0 0 0 5 23 114 17 5 1 0 0 0 0 0 0 0 0 1 0 0 0 3 27 270 12 8 235 6 3 7 0 2 0 6 1 0 138 18 57 1162 575 911 508 591 499 166
0 0 0 0 0 0 0 0 0 0 0 0 0 0 0 0 0 0 0 0 0 0 0 0 0 0 0 0 2 0 0 0 2 0 2 0 84 0 9 28 11 20 33 39 4 35 36 37 2 0 1 4 0 0 0 0 0 0 0 3 2 110 1 0 0 1 258 131 70 15 0 92 4 45 0 0 2 22 320 199 150 871 276 314 493 626 697 504
0 0 0 0 0 0 0 0 0 0 0 0 0 2 0 0 0 0 0 0 0 0 0 0 0 0 0 0 0 0 0 0 0 0 0 2 19 0 7 71 49 51 44 72 90 19 51 266 57 2 0 0 0 0 3 0 0 0 0 0 0 18 0 22 0 17 5 8 22 83 0 1 0 0 0 2 0 0 57 22 212 0 1250 505 272 105 374 896
0 0 0 0 0 0 0 0 0 0 0 0 0 0 0 0 0 0 0 0 0 0 0 0 0 0 0 0 0 6 0 1 0 28 0 0 8 0 6 22 36 54 49 89 13 46 36 56 29 22 16 13 30 0 0 0 0 0 0 0 0 0 0 0 16 2 4 39 48 108 282 0 0 18 5 3 0 0 0 57 163 25 91 622 283 570 627 1053
0 0 0 0 0 0 0 0 0 0 0 0 0 0 0 0 0 0 0 0 0 0 0 0 0 0 0 0 0 0 0 4 4 3 0 6 121 122 38 28 16 39 70 24 40 38 33 33 11 12 0 17 2 0 0 0 0 0 0 0 0 3 11 30 378 32 105 64 144 181 142 4 35 0 76 690 620 174 149 134 155 86 988 1034 1627 947 1056 1691
0 2 0 0 0 0 0 0 0 0 0 0 0 0 0 0 0 0 0 0 0 0 0 0 0 0 0 0 0 0 1 24 2 0 24 63 19 110 16 34 94 29 16 21 61 116 59 135 138 75 52 19 115 2 0 0 0 0 0 0 0 0 8 56 2 6 20 53 0 8 0 356 222 146 109 288 815 645 378 92 555 572 815 1167 1276 933 1795 1914
0 0 0 0 0 0 0 0 0 0 0 0 0 0 0 0 0 0 0 0 0 0 0 0 0 0 0 0 0 0 0 0 0 16 25 115 28 42 156 161 85 138 26 2 0 2 139 153 92 66 196 33 0 2 7 0 0 0 0 0 0 0 0 54 45 60 41 22 0 12 0 289 56 478 480 388 462 559 705 562 1226 1076 734 1766 3111 3208 1924 1246
0 0 0 0 0 0 0 0 0 0 0 0 0 0 0 0 0 0 0 0 0 0 0 0 0 0 0 0 0 0 0 0 11 0 65 46 113 263 132 122 37 17 44 42 79 117 62 161 65 114 37 43 6 2 0 0 0 0 0 0 0 0 0 0 3 9 0 2 71 47 24 0 249 22 330 593 740 956 762 999 946 910 695 1814 2688 2165 1965 1336
0 0 0 0 0 0 0 0 0 0 0 0 0 0 0 0 0 0 0 0 0 0 0 0 0 0 0 0 0 0 0 3 38 26 48 36 272 80 190 22 53 0 82 131 334 79 30 129 414 164 58 5 35 168 523 504 78 0 0 2 0 0 0 0 0 54 0 0 31 40 150 274 146 100 112 486 829 1190 1032 916 1080 1511 1723 1927 1680 1657 1036 838
0 0 0 0 0 0 0 0 0 0 0 0 0 0 0 0 0 0 0 0 0 0 0 0 0 0 0 0 0 0 0 1 3 93 32 47 227 360 0 144 56 67 105 659 576 21 23 186 261 193 272 152 162 353 378 353 347 224 0 0 1 1 0 1 25 209 19 108 0 96 290 149 86 6 78 701 712 833 932 1000 1129 1325 1851 1916 1936 1335 866 1852
0 0 0 0 0 0 0 0 0 0 0 0 0 0 0 0 0 0 0 0 0 0 0 0 0 0 0 0 0 0 0 0 19 13 34 27 269 329 100 31 145 240 524 10 229 2 110 110 88 150 255 417 321 191 36 145 20 49 51 236 0 2 11 4 32 132 328 26 96 383 505 7 7 124 20 596 431 1016 1066 1141 1110 1474 1650 2045 1534 1070 1126 2086
0 0 0 0 0 0 0 0 0 0 0 0 0 0 0 0 0 0 0 0 0 0 0 0 0 0 0 0 0 0 0 0 0 33 74 26 266 74 75 150 148 405 326 141 32 35 142 104 78 58 3 5 26 41 140 58 0 0 24 9 36 0 0 1 0 0 0 0 8 120 246 513 154 86 0 350 478 702 1286 1390 1632 1432 1970 2032 1679 1211 1018 1950
0 0 0 0 0 0 0 0 0 0 0 0 0 0 0 0 0 0 0 0 0 0 0 0 0 0 0 0 0 0 0 0 0 1 100 84 163 125 116 108 196 27 188 107 23 392 71 53 101 67 78 63 99 130 33 12 57 32 0 39 22 3 0 0 0 0 0 0 3 0 369 0 55 16 0 234 504 508 980 1601 1311 1211 1977 2069 1642 1250 1693 2110
0 0 0 0 0 0 0 0 0 0 0 0 0 0 0 0 0 0 0 0 0 0 0 0 0 0 0 0 0 0 0 0 2 0 4 0 0 14 65 107 75 287 122 430 120 107 266 320 281 110 176 183 149 84 128 66 51 20 25 16 78 258 0 0 0 0 0 0 0 0 27 158 84 138 14 14 60 924 1112 924 619 814 2155 1900 2016 2199 2250 1672
0 0 0 0 0 0 0 0 0 0 0 0 0 0 0 0 0 0 0 0 0 0 0 0 0 0 0 0 0 0 0 0 0 0 0 0 0 0 0 4 67 78 315 210 201 448 112 280 98 96 121 165 97 136 87 118 40 115 99 547 581 624 976 608 4 0 0 0 0 0 0 29 202 294 124 179 68 729 826 1080 1414 1513 1858 1711 1742 1900 1860 2090
0 0 0 0 4 0 0 0 0 0 0 0 0 0 0 0 0 0 0 0 0 0 0 0 0 0 0 0 0 0 0 0 0 0 0 0 0 0 0 0 0 9 26 39 22 62 55 227 180 58 48 142 190 170 217 22 26 14 57 548 511 641 1085 1028 522 1840 1444 1322 332 8 94 879 463 315 189 677 1095 904 1132 987 1314 1303 2062 1804 1843 2088 2046 1644
Wind_Speed
nan nan nan nan nan nan nan nan nan nan nan nan nan nan nan nan nan nan nan nan nan nan nan nan nan nan nan nan nan nan nan nan nan nan nan nan nan 18 14 19 25 27 24 19 18 13 1 4 2 1 3 4 10 13 10 14 17 10 9 12 8 4 6 10 4 3 5 9 5 2 1 5 5 2 7 3 5 7 7 10 10 8 11 14 16 17 18 18
nan nan nan nan nan nan nan nan nan nan nan nan nan nan nan nan nan nan nan nan nan nan nan nan nan nan nan nan nan nan nan nan nan nan nan 13 nan 20 18 21 23 26 22 nan 17 9 16 9 9 5 2 4 6 10 9 14 13 11 9 9 8 9 11 5 3 5 7 8 4 4 2 3 4 1 9 3 6 6 8 12 11 13 17 20 18 17 18 19
nan nan nan nan nan nan nan nan nan nan nan nan nan nan nan nan nan nan nan nan nan nan nan nan nan nan nan nan nan nan nan nan nan nan nan 7 18 20 21 22 23 25 nan 21 18 9 23 19 8 2 2 4 4 13 14 12 11 10 11 9 11 9 9 5 5 6 4 11 13 2 3 1 6 7 7 4 7 1 7 9 10 12 16 18 18 17 17 17
nan nan nan nan nan nan nan nan nan nan nan nan nan nan nan nan nan nan nan nan nan nan nan nan nan nan nan nan nan nan nan nan nan nan nan 13 15 19 20 22 24 26 nan 22 14 6 7 3 5 2 4 1 6 6 9 13 16 9 7 12 10 9 5 5 5 6 7 9 9 4 4 2 5 10 5 1 3 3 8 7 10 13 15 18 18 17 16 18
nan nan nan nan nan nan nan nan nan nan nan nan nan nan nan nan nan nan nan nan nan nan nan nan nan nan nan nan nan nan nan nan nan nan nan nan 14 15 19 22 24 23 nan 19 16 11 11 7 5 4 5 1 3 4 5 11 11 6 13 12 9 11 6 7 8 10 8 4 7 10 12 8 4 8 4 8 6 2 5 7 13 12 14 15 18 17 15 18
nan nan nan nan nan nan nan nan nan nan nan nan nan nan nan nan nan nan nan nan nan nan nan nan nan nan nan nan nan nan nan nan nan nan nan 15 nan 12 15 19 22 20 19 16 12 11 11 4 9 2 3 2 3 3 7 7 12 6 7 9 7 9 9 11 8 10 12 11 14 10 10 13 7 8 10 5 nan nan 10 8 13 13 12 13 14 16 16 16
nan nan nan nan nan nan nan nan nan nan nan nan nan nan nan nan nan nan nan nan nan nan nan nan nan nan nan nan nan nan nan nan nan nan 16 16 19 15 11 13 13 14 16 13 12 13 13 21 13 10 5 3 1 3 4 4 11 7 6 8 10 11 9 11 10 11 11 13 10 10 12 15 13 11 7 7 nan nan 11 9 13 13 14 12 13 14 16 15
nan nan nan nan nan nan nan nan nan nan nan nan nan nan nan nan nan nan nan nan nan nan nan nan nan nan nan nan nan nan nan nan nan nan 16 16 19 17 14 nan nan nan 16 15 10 14 14 10 14 9 10 nan 9 10 4 3 7 5 5 6 11 11 11 9 7 12 12 10 14 16 17 13 9 7 10 8 12 nan 12 10 12 14 14 11 10 12 14 14
nan nan nan nan nan nan nan nan nan nan nan nan nan nan nan nan nan nan nan nan nan nan nan nan nan nan nan nan nan nan nan nan nan 20 23 20 nan nan nan nan nan nan 14 14 14 8 14 10 14 17 9 6 15 12 11 7 9 6 5 4 6 10 16 13 15 12 11 17 20 17 10 7 8 12 9 6 8 nan nan 12 10 13 13 12 11 11 12 11
nan nan nan nan nan nan nan nan nan nan nan nan nan nan nan nan nan nan nan nan nan nan nan nan nan nan nan nan nan nan nan nan nan nan nan nan nan nan nan nan nan 14 13 13 8 13 12 16 19 12 5 12 20 7 11 2 11 13 8 2 4 9 12 11 13 13 20 16 13 7 7 10 9 12 7 5 7 4 nan 12 9 11 12 11 10 9 9 12
nan nan nan nan nan nan nan nan nan nan nan nan nan nan nan nan nan nan nan nan nan nan nan nan nan nan nan nan nan nan nan nan nan nan nan nan nan nan nan nan nan nan 12 10 9 9 8 8 8 9 11 4 nan 8 16 12 14 17 14 6 4 7 11 10 11 12 15 9 1 7 10 10 9 10 2 4 3 4 nan 10 10 8 11 11 11 10 9 11
nan nan nan nan nan nan nan nan nan nan nan nan nan nan nan nan nan nan nan nan nan nan nan nan nan nan nan nan nan nan nan nan nan nan nan nan nan nan nan nan nan nan 10 8 13 11 8 6 6 11 9 3 nan 6 nan 27 5 16 12 8 7 6 7 9 10 13 8 9 9 9 7 5 6 5 9 5 5 4 6 nan 9 8 11 10 11 9 8 8
nan nan nan nan nan nan nan nan nan nan nan nan nan nan nan nan nan nan nan nan nan nan nan nan nan nan nan nan nan nan nan nan nan nan nan nan nan nan nan nan nan nan 8 6 3 8 8 7 7 10 10 10 5 10 nan 15 17 15 9 6 6 6 6 8 12 6 9 11 9 8 8 9 7 6 7 7 11 11 8 4 nan 6 9 9 9 9 8 7
nan nan nan nan nan nan nan nan nan nan nan nan nan nan nan nan nan nan nan nan nan nan nan nan nan nan nan nan nan nan nan nan nan nan nan nan nan nan nan nan nan 9 7 3 1 3 5 5 5 7 6 nan 6 nan nan 15 9 11 9 6 4 3 8 9 6 8 10 12 9 9 9 9 8 9 8 8 12 11 9 12 nan nan 7 9 7 8 8 9
nan nan nan nan nan nan nan nan nan nan nan nan nan nan nan nan nan nan nan nan nan nan nan nan nan nan nan nan nan nan nan nan nan nan nan nan nan nan nan nan nan nan 5 6 3 6 4 0 4 7 7 9 11 nan nan 17 10 11 7 8 6 2 8 8 6 8 10 11 9 7 7 10 11 9 11 8 13 9 11 9 12 nan 5 8 8 8 8 9
nan nan nan nan nan nan nan nan nan nan nan nan nan nan nan nan nan nan nan nan nan nan nan nan nan nan nan nan nan nan nan nan nan nan nan nan nan nan nan nan nan nan nan 6 8 5 5 2 5 5 6 6 5 nan 11 16 11 11 12 6 9 8 8 4 8 8 9 13 12 6 10 10 9 8 10 11 13 9 6 11 9 6 6 7 7 8 8 9
nan nan nan nan nan nan nan nan nan nan nan nan nan nan nan nan nan nan nan nan nan nan nan nan nan nan nan nan nan nan nan nan nan nan nan nan nan nan nan nan nan nan nan nan 8 8 nan nan nan nan nan nan nan nan 13 9 nan 15 12 7 12 12 10 7 12 8 10 9 11 9 6 8 12 12 12 14 14 11 6 3 6 11 nan 4 6 7 8 9
nan nan nan nan nan nan nan nan nan nan nan nan nan nan nan nan nan nan nan nan nan nan nan nan nan nan nan nan nan nan nan nan nan nan nan nan nan nan nan nan nan nan nan nan nan nan nan nan nan nan nan nan nan nan 10 8 8 nan 12 10 11 10 nan 9 9 10 11 11 5 7 5 8 13 15 13 16 17 10 6 7 7 11 8 3 3 4 7 8
nan nan nan nan nan nan nan nan nan nan nan nan nan nan nan nan nan nan nan nan nan nan nan nan nan nan nan nan nan nan nan nan nan nan nan nan nan nan nan nan nan nan nan nan nan nan nan nan nan nan nan nan nan nan nan 16 nan nan 14 nan 12 8 nan nan 10 14 16 14 10 10 7 7 12 14 14 14 19 17 12 10 9 9 15 8 2 3 3 5
nan nan nan nan nan nan nan nan nan nan nan nan nan nan nan nan nan nan nan nan nan nan nan nan nan nan nan nan nan nan nan nan nan nan nan nan nan nan nan nan nan nan nan nan nan nan nan nan nan nan nan nan nan nan nan nan nan nan 15 nan 15 nan nan 16 13 17 15 13 12 10 6 9 9 12 14 14 15 16 20 13 7 11 13 17 6 2 2 3
nan nan nan nan nan nan nan nan nan nan nan nan nan nan nan nan nan nan nan nan nan nan nan nan nan nan nan nan nan nan nan nan nan nan nan nan nan nan nan nan nan nan nan nan nan nan nan nan nan nan nan nan nan nan nan nan nan nan nan nan nan nan nan 16 16 21 18 13 12 14 11 nan nan 11 12 13 13 13 18 20 12 9 13 15 22 5 1 2
nan nan nan nan nan nan nan nan nan nan nan nan nan nan nan nan nan nan nan nan nan nan nan nan nan nan nan nan nan nan nan nan nan nan nan nan nan nan nan nan nan nan nan nan nan nan nan nan nan nan nan nan nan nan nan nan nan nan nan nan nan 10 nan nan 16 nan 11 nan nan nan 15 12 nan 14 12 12 11 10 9 16 17 14 10 10 15 15 2 2
nan nan nan nan nan nan nan nan nan nan nan nan nan nan nan nan nan nan nan nan nan nan nan nan nan nan nan nan nan nan nan nan nan nan nan nan nan nan nan nan nan nan nan nan nan nan nan nan nan nan nan nan nan nan 10 7 nan nan nan 3 nan nan nan 13 11 nan 13 nan nan nan nan nan nan 13 13 12 9 8 8 11 17 18 10 5 1 14 6 4
nan nan nan nan nan nan nan nan nan nan nan nan nan nan nan nan nan nan nan nan nan nan nan nan nan nan nan nan nan nan nan nan nan nan nan nan nan nan nan nan nan nan nan nan nan nan nan nan nan nan nan nan nan nan nan nan nan nan nan nan 4 nan nan nan nan 14 20 nan nan nan nan nan 18 10 9 10 8 8 9 11 16 15 13 4 13 14 19 15
nan nan nan nan nan nan nan nan nan nan nan nan nan nan nan nan nan nan nan nan nan nan nan nan nan nan nan nan nan nan nan nan nan nan nan nan nan nan nan nan nan nan nan nan nan nan nan nan nan nan nan nan nan nan nan nan nan nan nan nan nan nan 9 nan nan nan nan 17 8 nan nan nan 16 17 9 10 9 9 13 10 16 13 10 8 12 13 11 11
nan nan nan nan nan nan nan nan nan nan nan nan nan nan nan nan nan nan nan nan nan nan nan nan nan nan nan nan nan nan nan nan nan nan nan nan nan nan nan nan nan nan nan nan nan nan nan nan nan nan nan nan nan nan nan nan nan nan nan nan nan nan nan nan nan nan nan nan 13 6 nan nan nan 13 12 9 13 15 14 11 11 15 11 11 12 10 10 6
nan nan nan nan nan nan nan nan nan nan nan nan nan nan nan nan nan nan nan nan nan nan nan nan nan nan nan nan nan nan nan nan nan nan nan nan nan nan nan nan nan nan nan nan nan nan nan nan nan nan nan nan nan nan nan nan nan nan nan nan nan nan nan nan nan nan nan nan 19 nan nan nan nan nan 16 16 18 19 17 12 12 15 13 9 8 8 8 7
nan nan nan nan nan nan nan nan nan nan nan nan nan nan nan nan nan nan nan nan nan nan nan nan nan nan nan nan nan nan nan nan nan nan nan nan nan nan nan nan nan nan nan nan nan nan nan nan nan nan nan nan nan nan nan nan nan nan nan nan nan nan nan nan nan nan nan nan nan nan nan nan nan 17 18 19 18 20 18 14 13 12 12 11 11 8 6 4
nan nan nan nan nan nan nan nan nan nan nan nan nan nan nan nan nan nan nan nan nan nan nan nan nan nan nan nan nan nan nan nan nan nan nan nan nan nan nan nan nan nan nan nan nan nan nan nan nan nan nan nan nan nan nan nan nan nan nan nan nan nan nan nan nan nan nan nan nan nan nan nan nan nan nan 21 21 19 17 13 11 10 11 10 8 11 9 9
nan nan nan nan nan nan nan nan nan nan nan nan nan nan nan nan nan nan nan nan nan nan nan nan nan nan nan nan nan nan nan nan nan nan nan nan nan nan nan nan nan nan nan nan nan nan nan nan nan nan nan nan nan nan nan nan nan nan nan nan nan nan nan nan nan nan nan nan nan nan nan nan nan nan nan nan nan 19 14 11 10 11 10 9 10 12 8 9
nan nan nan nan nan nan nan nan nan nan nan nan nan nan nan nan nan nan nan nan nan nan nan nan nan nan nan nan nan nan nan nan nan nan nan nan nan nan nan nan nan nan nan nan nan nan nan nan nan nan nan nan nan nan nan nan nan nan nan nan nan nan nan nan nan nan nan nan nan nan nan nan nan nan nan nan nan nan 20 19 20 18 16 13 10 10 12 10
nan nan nan nan nan nan nan nan nan nan nan nan nan nan nan nan nan nan nan nan nan nan nan nan nan nan nan nan nan nan nan nan nan nan nan nan nan nan nan nan nan nan nan nan nan nan nan nan nan nan nan nan nan nan nan nan nan nan nan nan nan nan nan nan nan 5 nan nan nan nan nan nan nan nan nan nan nan 16 29 18 17 19 18 14 12 11 11 11
nan nan nan nan nan nan nan nan nan nan nan nan nan nan nan nan nan nan nan nan nan nan nan nan nan nan nan nan nan nan nan nan nan nan nan nan nan nan nan nan nan nan nan nan nan nan nan nan nan nan nan nan nan nan nan nan nan nan nan nan nan nan nan nan nan 7 nan nan nan nan nan nan nan nan nan nan nan 24 29 24 15 19 21 19 15 12 12 12
nan nan nan nan nan nan nan nan nan nan nan nan nan nan nan nan nan nan nan nan nan nan nan nan nan nan nan nan nan nan nan nan nan nan nan nan nan nan nan nan nan nan nan nan nan nan nan 12 nan nan nan nan nan nan nan nan nan nan nan nan nan nan nan 10 nan nan 5 nan nan nan nan 5 nan nan nan nan nan 26 27 28 19 15 19 19 16 14 14 12
nan nan nan nan nan nan nan nan nan nan nan nan nan nan nan nan nan nan nan nan nan nan nan nan nan nan nan nan nan nan nan nan nan nan nan nan nan nan nan nan nan nan nan nan nan nan nan nan nan nan nan nan nan nan nan nan nan nan nan nan nan nan nan nan 4 nan nan nan nan 5 3 nan nan nan nan nan nan nan nan 29 24 21 16 17 16 13 12 11
nan nan nan nan nan nan nan nan nan nan nan nan nan nan nan nan nan nan nan nan nan nan nan nan nan nan nan nan nan nan nan nan nan nan nan nan nan nan nan nan nan nan nan nan nan nan nan nan nan nan nan nan nan nan nan nan nan nan nan nan nan nan nan nan nan nan nan nan nan nan 4 nan nan nan nan nan nan nan nan nan 24 28 21 16 14 14 11 10
nan nan nan nan nan nan nan nan nan nan nan nan nan nan nan nan nan nan nan nan nan nan nan nan nan nan nan nan nan nan nan nan nan nan nan nan nan nan nan nan nan nan nan nan nan nan nan 12 nan nan nan nan nan nan nan nan nan nan nan nan nan nan nan nan nan 9 nan nan 6 nan nan nan nan nan nan nan nan nan 27 nan nan 32 25 20 13 9 9 9
nan nan nan nan nan nan nan nan nan nan nan nan nan nan nan nan nan nan nan nan nan nan nan nan nan nan nan nan nan nan nan nan nan nan nan nan nan nan nan nan nan nan nan nan nan nan nan nan nan nan nan nan nan nan nan nan nan nan nan nan nan 15 nan nan nan nan 5 6 nan nan nan nan nan nan nan nan nan nan 21 21 17 26 23 19 13 12 12 10
nan nan nan nan nan nan nan nan nan nan nan nan nan nan nan nan nan nan nan nan nan nan nan nan nan nan nan nan nan nan nan nan nan nan nan nan nan nan nan nan nan nan nan nan nan nan nan 20 nan nan nan nan nan nan nan nan nan nan nan nan nan nan nan nan nan nan nan nan nan nan nan nan nan nan nan nan nan nan nan nan 9 nan 23 17 10 9 10 11
nan nan nan nan nan nan nan nan nan nan nan nan nan nan nan nan nan nan nan nan nan nan nan nan nan nan nan nan nan nan nan nan nan nan nan nan nan nan nan nan nan nan nan nan nan nan nan nan nan nan nan nan nan nan nan nan nan nan nan nan nan nan nan nan nan nan nan nan nan 4 5 nan nan nan nan nan nan nan nan nan 12 nan nan 18 12 15 9 6
nan nan nan nan nan nan nan nan nan nan nan nan nan nan nan nan nan nan nan nan nan nan nan nan nan nan nan nan nan nan nan nan nan nan nan nan 24 19 nan nan nan nan nan nan nan nan nan nan nan nan nan nan nan nan nan nan nan nan nan nan nan nan nan nan 9 nan 3 nan 4 5 6 nan nan nan nan 30 27 19 16 14 10 nan 25 25 11 18 10 11
nan nan nan nan nan nan nan nan nan nan nan nan nan nan nan nan nan nan nan nan nan nan nan nan nan nan nan nan nan nan nan nan nan nan nan nan nan 16 nan nan nan nan nan nan nan 33 nan 28 25 nan nan nan 26 nan nan nan nan nan nan nan nan nan nan nan nan nan nan nan nan nan nan 12 21 27 26 23 23 25 19 nan 21 23 22 16 8 14 18 15
nan nan nan nan nan nan nan nan nan nan nan nan nan nan nan nan nan nan nan nan nan nan nan nan nan nan nan nan nan nan nan nan nan nan nan 16 nan nan 23 18 nan 14 nan nan nan nan 35 26 nan nan 30 nan nan nan nan nan nan nan nan nan nan nan nan nan nan nan nan nan nan nan nan 17 nan 25 24 21 21 24 23 21 26 22 14 17 18 21 22 14
nan nan nan nan nan nan nan nan nan nan nan nan nan nan nan nan nan nan nan nan nan nan nan nan nan nan nan nan nan nan nan nan nan nan nan nan 19 19 17 15 nan nan nan nan nan 33 nan 26 nan 28 nan nan nan nan nan nan nan nan nan nan nan nan nan nan nan nan nan nan nan nan nan nan 23 nan 23 26 23 26 31 23 19 16 14 17 15 19 23 11
nan nan nan nan nan nan nan nan nan nan nan nan nan nan nan nan nan nan nan nan nan nan nan nan nan nan nan nan nan nan nan nan nan nan nan nan 24 nan 14 nan nan nan nan 25 12 nan nan 30 31 26 nan nan nan 18 26 28 nan nan nan nan nan nan nan nan nan nan nan nan nan nan 17 25 24 nan 26 26 21 25 26 22 15 17 14 16 15 16 23 9
nan nan nan nan nan nan nan nan nan nan nan nan nan nan nan nan nan nan nan nan nan nan nan nan nan nan nan nan nan nan nan nan nan nan nan nan 20 22 nan 17 nan nan 19 19 14 nan nan 32 28 30 31 26 23 25 29 38 35 28 nan nan nan nan nan nan nan 10 nan 17 nan nan 23 25 nan nan nan 28 13 19 19 13 16 17 16 17 17 18 17 9
nan nan nan nan nan nan nan nan nan nan nan nan nan nan nan nan nan nan nan nan nan nan nan nan nan nan nan nan nan nan nan nan nan nan nan nan 23 18 23 nan 3 24 21 nan 9 nan 27 28 nan 23 24 23 27 30 nan 32 nan nan nan 27 nan nan nan nan nan 11 18 nan nan 18 28 nan nan 7 nan 24 10 13 17 14 18 18 13 15 13 17 19 15
nan nan nan nan nan nan nan nan nan nan nan nan nan nan nan nan nan nan nan nan nan nan nan nan nan nan nan nan nan nan nan nan nan nan nan nan 14 nan nan 13 13 23 10 7 nan nan 22 23 nan nan nan nan nan nan 36 nan nan nan nan nan nan nan nan nan nan nan nan nan nan 22 25 24 20 nan nan 24 13 11 15 16 20 20 17 19 14 16 15 8
nan nan nan nan nan nan nan nan nan nan nan nan nan nan nan nan nan nan nan nan nan nan nan nan nan nan nan nan nan nan nan nan nan nan nan nan 10 12 10 10 14 nan 11 12 nan 22 nan nan 26 nan nan nan nan 36 nan nan nan nan nan nan nan nan nan nan nan nan nan nan nan nan 21 nan nan nan nan 22 15 16 20 24 27 24 17 13 9 9 11 7
nan nan nan nan nan nan nan nan nan nan nan nan nan nan nan nan nan nan nan nan nan nan nan nan nan nan nan nan nan nan nan nan nan nan nan nan nan nan nan 11 nan 19 19 23 23 21 14 21 20 26 26 26 28 nan 41 nan nan nan nan nan nan 29 nan nan nan nan nan nan nan nan nan 11 nan 23 nan nan nan 30 31 26 22 18 11 12 8 5 11 14
nan nan nan nan nan nan nan nan nan nan nan nan nan nan nan nan nan nan nan nan nan nan nan nan nan nan nan nan nan nan nan nan nan nan nan nan nan nan nan nan nan nan 19 15 14 15 9 13 nan nan 34 29 nan 35 nan 28 nan 22 nan 26 32 33 35 24 nan nan nan nan nan nan nan nan 24 27 28 23 nan 31 21 18 16 10 11 14 9 5 11 16
nan nan nan nan nan nan nan nan nan nan nan nan nan nan nan nan nan nan nan nan nan nan nan nan nan nan nan nan nan nan nan nan nan nan nan nan nan nan nan nan nan nan nan nan nan nan nan 15 20 nan nan 26 29 33 32 nan nan nan nan 32 31 34 39 46 26 41 44 43 22 nan nan 37 34 30 24 29 37 25 15 11 12 12 19 18 11 7 13 15
Wind_Direction
nan nan nan nan nan nan nan nan nan nan nan nan nan nan nan nan nan nan nan nan nan nan nan nan nan nan nan nan nan nan nan nan nan nan nan nan nan 354 350 348 1 7 17 23 32 50 177 203 35 267 206 167 231 223 224 235 242 254 248 220 219 212 241 233 211 201 127 130 272 352 274 255 271 325 268 231 278 259 265 265 252 259 299 307 311 325 307 304
nan nan nan nan nan nan nan nan nan nan nan nan nan nan nan nan nan nan nan nan nan nan nan nan nan nan nan nan nan nan nan nan nan nan nan 10 nan 350 353 351 356 7 9 nan 33 20 278 90 83 338 161 174 216 220 242 239 256 251 235 258 227 220 249 263 216 188 178 165 208 195 253 290 273 311 226 189 276 275 272 265 268 273 285 302 318 327 312 312
nan nan nan nan nan nan nan nan nan nan nan nan nan nan nan nan nan nan nan nan nan nan nan nan nan nan nan nan nan nan nan nan nan nan nan 334 331 343 351 350 355 2 nan 17 18 21 324 35 27 8 63 140 206 216 205 232 251 228 238 244 240 229 258 223 240 212 138 163 151 269 235 269 266 236 240 174 255 307 275 277 287 294 305 310 319 330 326 328
nan nan nan nan nan nan nan nan nan nan nan nan nan nan nan nan nan nan nan nan nan nan nan nan nan nan nan nan nan nan nan nan nan nan nan 328 343 342 350 348 356 5 nan 27 39 17 305 339 170 83 47 88 230 206 222 219 224 204 228 231 239 256 262 268 221 208 202 249 131 143 261 265 248 267 279 29 264 172 256 283 294 301 310 314 322 329 338 331
nan nan nan nan nan nan nan nan nan nan nan nan nan nan nan nan nan nan nan nan nan nan nan nan nan nan nan nan nan nan nan nan nan nan nan nan 332 356 348 350 359 7 nan 20 24 356 328 312 292 77 96 294 218 177 219 227 250 229 229 218 228 253 245 260 213 211 198 174 165 204 200 206 210 252 290 209 201 205 289 278 283 300 311 321 325 331 340 338
nan nan nan nan nan nan nan nan nan nan nan nan nan nan nan nan nan nan nan nan nan nan nan nan nan nan nan nan nan nan nan nan nan nan nan 330 nan 338 357 354 1 14 14 17 31 339 0 291 35 36 55 41 240 151 270 258 264 214 236 248 238 231 221 246 220 215 221 196 216 175 220 157 224 234 226 256 nan nan 266 276 281 291 310 314 324 330 333 338
nan nan nan nan nan nan nan nan nan nan nan nan nan nan nan nan nan nan nan nan nan nan nan nan nan nan nan nan nan nan nan nan nan nan 306 330 321 331 344 3 349 6 21 17 17 343 342 339 41 46 38 20 322 57 230 303 273 276 229 252 241 239 220 235 214 223 219 243 195 196 191 180 209 202 217 206 nan nan 267 276 288 293 300 311 323 332 328 333
nan nan nan nan nan nan nan nan nan nan nan nan nan nan nan nan nan nan nan nan nan nan nan nan nan nan nan nan nan nan nan nan nan nan 314 324 322 324 329 nan nan nan 12 12 10 2 333 344 46 24 41 nan 315 354 347 309 290 290 246 240 245 240 227 225 225 227 238 216 211 197 203 212 175 188 192 201 163 nan 265 278 283 294 298 308 318 323 326 328
nan nan nan nan nan nan nan nan nan nan nan nan nan nan nan nan nan nan nan nan nan nan nan nan nan nan nan nan nan nan nan nan nan 317 323 329 nan nan nan nan nan nan 3 5 12 12 326 350 49 23 59 330 337 333 7 7 313 278 279 247 263 243 232 220 211 236 219 219 191 217 196 171 199 162 186 197 150 nan nan 276 290 296 301 307 311 317 320 328
nan nan nan nan nan nan nan nan nan nan nan nan nan nan nan nan nan nan nan nan nan nan nan nan nan nan nan nan nan nan nan nan nan nan nan nan nan nan nan nan nan 359 1 357 2 359 5 347 34 60 26 47 336 322 333 181 305 307 301 300 250 241 252 261 268 221 235 235 185 204 197 189 204 201 219 191 161 247 nan 285 288 301 306 302 309 310 316 306
nan nan nan nan nan nan nan nan nan nan nan nan nan nan nan nan nan nan nan nan nan nan nan nan nan nan nan nan nan nan nan nan nan nan nan nan nan nan nan nan nan nan 2 359 4 335 11 9 41 53 41 6 nan 334 318 345 317 313 307 303 263 223 246 241 246 254 256 254 82 222 212 211 189 235 240 275 169 229 nan 285 291 303 302 304 312 314 311 313
nan nan nan nan nan nan nan nan nan nan nan nan nan nan nan nan nan nan nan nan nan nan nan nan nan nan nan nan nan nan nan nan nan nan nan nan nan nan nan nan nan nan 354 360 344 343 349 33 49 59 75 103 nan 329 nan 290 333 305 306 309 292 281 263 231 233 260 285 239 235 210 213 224 238 210 238 232 286 194 197 nan 303 311 304 307 310 308 314 312
nan nan nan nan nan nan nan nan nan nan nan nan nan nan nan nan nan nan nan nan nan nan nan nan nan nan nan nan nan nan nan nan nan nan nan nan nan nan nan nan nan nan 5 22 13 308 332 0 50 67 66 77 80 322 nan 332 325 300 302 291 313 320 324 283 259 255 268 260 246 235 231 244 250 235 244 224 216 200 175 205 nan 305 303 309 309 306 312 307
nan nan nan nan nan nan nan nan nan nan nan nan nan nan nan nan nan nan nan nan nan nan nan nan nan nan nan nan nan nan nan nan nan nan nan nan nan nan nan nan nan 346 331 17 1 221 241 319 31 78 83 nan 62 nan nan 283 265 296 332 305 273 311 305 305 274 272 261 256 265 247 227 242 257 259 257 250 241 224 204 176 nan nan 317 306 320 312 316 311
nan nan nan nan nan nan nan nan nan nan nan nan nan nan nan nan nan nan nan nan nan nan nan nan nan nan nan nan nan nan nan nan nan nan nan nan nan nan nan nan nan nan 306 320 303 305 304 241 68 49 43 42 36 nan nan 285 325 300 310 323 286 190 296 334 327 275 258 262 271 258 224 228 249 261 270 259 254 236 198 170 152 nan 319 317 322 326 322 311
nan nan nan nan nan nan nan nan nan nan nan nan nan nan nan nan nan nan nan nan nan nan nan nan nan nan nan nan nan nan nan nan nan nan nan nan nan nan nan nan nan nan nan 301 280 240 269 326 36 41 56 84 81 nan 270 298 296 315 330 328 331 347 303 12 347 310 276 264 274 275 228 245 259 276 279 270 265 257 240 165 157 140 325 323 324 330 329 317
nan nan nan nan nan nan nan nan nan nan nan nan nan nan nan nan nan nan nan nan nan nan nan nan nan nan nan nan nan nan nan nan nan nan nan nan nan nan nan nan nan nan nan nan 292 302 nan nan nan nan nan nan nan nan 294 292 nan 336 2 9 338 345 331 312 315 0 336 297 281 292 259 248 249 273 284 289 278 266 239 192 152 143 nan 321 318 341 343 330
nan nan nan nan nan nan nan nan nan nan nan nan nan nan nan nan nan nan nan nan nan nan nan nan nan nan nan nan nan nan nan nan nan nan nan nan nan nan nan nan nan nan nan nan nan nan nan nan nan nan nan nan nan nan 339 314 344 nan 343 343 349 354 nan 303 330 1 4 350 320 297 282 269 261 265 276 292 294 272 250 245 188 168 162 302 315 348 347 341
nan nan nan nan nan nan nan nan nan nan nan nan nan nan nan nan nan nan nan nan nan nan nan nan nan nan nan nan nan nan nan nan nan nan nan nan nan nan nan nan nan nan nan nan nan nan nan nan nan nan nan nan nan nan nan 345 nan nan 335 nan 318 328 nan nan 357 332 357 346 359 347 326 283 276 275 284 296 306 304 279 256 216 200 179 152 326 357 353 341
nan nan nan nan nan nan nan nan nan nan nan nan nan nan nan nan nan nan nan nan nan nan nan nan nan nan nan nan nan nan nan nan nan nan nan nan nan nan nan nan nan nan nan nan nan nan nan nan nan nan nan nan nan nan nan nan nan nan 322 nan 308 nan nan 329 319 345 341 352 12 357 10 308 303 296 286 297 304 306 287 282 258 206 209 170 136 4 355 342
nan nan nan nan nan nan nan nan nan nan nan nan nan nan nan nan nan nan nan nan nan nan nan nan nan nan nan nan nan nan nan nan nan nan nan nan nan nan nan nan nan nan nan nan nan nan nan nan nan nan nan nan nan nan nan nan nan nan nan nan nan nan nan 294 340 341 352 8 9 14 13 nan nan 316 303 290 302 305 299 290 275 246 213 194 150 114 324 311
nan nan nan nan nan nan nan nan nan nan nan nan nan nan nan nan nan nan nan nan nan nan nan nan nan nan nan nan nan nan nan nan nan nan nan nan nan nan nan nan nan nan nan nan nan nan nan nan nan nan nan nan nan nan nan nan nan nan nan nan nan 321 nan nan 336 nan 336 nan nan nan 12 352 nan 322 309 302 297 293 296 290 297 299 268 197 148 122 247 277
nan nan nan nan nan nan nan nan nan nan nan nan nan nan nan nan nan nan nan nan nan nan nan nan nan nan nan nan nan nan nan nan nan nan nan nan nan nan nan nan nan nan nan nan nan nan nan nan nan nan nan nan nan nan 212 214 nan nan nan 285 nan nan nan 292 314 nan 326 nan nan nan nan nan nan 316 322 302 316 288 286 304 293 297 289 254 145 158 183 289
nan nan nan nan nan nan nan nan nan nan nan nan nan nan nan nan nan nan nan nan nan nan nan nan nan nan nan nan nan nan nan nan nan nan nan nan nan nan nan nan nan nan nan nan nan nan nan nan nan nan nan nan nan nan nan nan nan nan nan nan 273 nan nan nan nan 352 323 nan nan nan nan nan 306 333 313 308 311 292 282 284 285 283 281 229 197 217 186 172
nan nan nan nan nan nan nan nan nan nan nan nan nan nan nan nan nan nan nan nan nan nan nan nan nan nan nan nan nan nan nan nan nan nan nan nan nan nan nan nan nan nan nan nan nan nan nan nan nan nan nan nan nan nan nan nan nan nan nan nan nan nan 229 nan nan nan nan 317 336 nan nan nan 323 345 351 298 311 325 305 307 292 283 271 248 254 219 214 156
nan nan nan nan nan nan nan nan nan nan nan nan nan nan nan nan nan nan nan nan nan nan nan nan nan nan nan nan nan nan nan nan nan nan nan nan nan nan nan nan nan nan nan nan nan nan nan nan nan nan nan nan nan nan nan nan nan nan nan nan nan nan nan nan nan nan nan nan 296 347 nan nan nan 328 349 329 331 328 311 311 293 280 270 257 244 235 213 168
nan nan nan nan nan nan nan nan nan nan nan nan nan nan nan nan nan nan nan nan nan nan nan nan nan nan nan nan nan nan nan nan nan nan nan nan nan nan nan nan nan nan nan nan nan nan nan nan nan nan nan nan nan nan nan nan nan nan nan nan nan nan nan nan nan nan nan nan 307 nan nan nan nan nan 329 331 337 331 320 314 291 285 297 305 269 253 242 177
nan nan nan nan nan nan nan nan nan nan nan nan nan nan nan nan nan nan nan nan nan nan nan nan nan nan nan nan nan nan nan nan nan nan nan nan nan nan nan nan nan nan nan nan nan nan nan nan nan nan nan nan nan nan nan nan nan nan nan nan nan nan nan nan nan nan nan nan nan nan nan nan nan 287 316 324 329 336 342 329 321 327 325 327 314 302 294 245
nan nan nan nan nan nan nan nan nan nan nan nan nan nan nan nan nan nan nan nan nan nan nan nan nan nan nan nan nan nan nan nan nan nan nan nan nan nan nan nan nan nan nan nan nan nan nan nan nan nan nan nan nan nan nan nan nan nan nan nan nan nan nan nan nan nan nan nan nan nan nan nan nan nan nan 328 327 341 351 346 335 335 332 337 328 302 306 305
nan nan nan nan nan nan nan nan nan nan nan nan nan nan nan nan nan nan nan nan nan nan nan nan nan nan nan nan nan nan nan nan nan nan nan nan nan nan nan nan nan nan nan nan nan nan nan nan nan nan nan nan nan nan nan nan nan nan nan nan nan nan nan nan nan nan nan nan nan nan nan nan nan nan nan nan nan 350 352 343 346 349 339 348 358 328 311 316
nan nan nan nan nan nan nan nan nan nan nan nan nan nan nan nan nan nan nan nan nan nan nan nan nan nan nan nan nan nan nan nan nan nan nan nan nan nan nan nan nan nan nan nan nan nan nan nan nan nan nan nan nan nan nan nan nan nan nan nan nan nan nan nan nan nan nan nan nan nan nan nan nan nan nan nan nan nan 344 349 352 355 353 355 359 353 333 326
nan nan nan nan nan nan nan nan nan nan nan nan nan nan nan nan nan nan nan nan nan nan nan nan nan nan nan nan nan nan nan nan nan nan nan nan nan nan nan nan nan nan nan nan nan nan nan nan nan nan nan nan nan nan nan nan nan nan nan nan nan nan nan nan nan 276 nan nan nan nan nan nan nan nan nan nan nan 349 332 331 351 353 352 355 353 0 324 334
nan nan nan nan nan nan nan nan nan nan nan nan nan nan nan nan nan nan nan nan nan nan nan nan nan nan nan nan nan nan nan nan nan nan nan nan nan nan nan nan nan nan nan nan nan nan nan nan nan nan nan nan nan nan nan nan nan nan nan nan nan nan nan nan nan 251 nan nan nan nan nan nan nan nan nan nan nan 305 311 310 343 350 345 349 355 351 342 339
nan nan nan nan nan nan nan nan nan nan nan nan nan nan nan nan nan nan nan nan nan nan nan nan nan nan nan nan nan nan nan nan nan nan nan nan nan nan nan nan nan nan nan nan nan nan nan 255 nan nan nan nan nan nan nan nan nan nan nan nan nan nan nan 224 nan nan 307 nan nan nan nan 288 nan nan nan nan nan 285 316 312 313 327 334 337 339 347 352 351
nan nan nan nan nan nan nan nan nan nan nan nan nan nan nan nan nan nan nan nan nan nan nan nan nan nan nan nan nan nan nan nan nan nan nan nan nan nan nan nan nan nan nan nan nan nan nan nan nan nan nan nan nan nan nan nan nan nan nan nan nan nan nan nan 221 nan nan nan nan 167 203 nan nan nan nan nan nan nan nan 294 317 315 306 310 316 332 346 342
nan nan nan nan nan nan nan nan nan nan nan nan nan nan nan nan nan nan nan nan nan nan nan nan nan nan nan nan nan nan nan nan nan nan nan nan nan nan nan nan nan nan nan nan nan nan nan nan nan nan nan nan nan nan nan nan nan nan nan nan nan nan nan nan nan nan nan nan nan nan 302 nan nan nan nan nan nan nan nan nan 296 309 301 299 303 320 345 340
nan nan nan nan nan nan nan nan nan nan nan nan nan nan nan nan nan nan nan nan nan nan nan nan nan nan nan nan nan nan nan nan nan nan nan nan nan nan nan nan nan nan nan nan nan nan nan 249 nan nan nan nan nan nan nan nan nan nan nan nan nan nan nan nan nan 240 nan nan 285 nan nan nan nan nan nan nan nan nan 240 nan nan 289 304 311 314 327 317 315
nan nan nan nan nan nan nan nan nan nan nan nan nan nan nan nan nan nan nan nan nan nan nan nan nan nan nan nan nan nan nan nan nan nan nan nan nan nan nan nan nan nan nan nan nan nan nan nan nan nan nan nan nan nan nan nan nan nan nan nan nan 236 nan nan nan nan 198 278 nan nan nan nan nan nan nan nan nan nan 271 277 289 300 314 312 320 328 318 319
nan nan nan nan nan nan nan nan nan nan nan nan nan nan nan nan nan nan nan nan nan nan nan nan nan nan nan nan nan nan nan nan nan nan nan nan nan nan nan nan nan nan nan nan nan nan nan 191 nan nan nan nan nan nan nan nan nan nan nan nan nan nan nan nan nan nan nan nan nan nan nan nan nan nan nan nan nan nan nan nan 274 nan 308 308 317 299 285 296
nan nan nan nan nan nan nan nan nan nan nan nan nan nan nan nan nan nan nan nan nan nan nan nan nan nan nan nan nan nan nan nan nan nan nan nan nan nan nan nan nan nan nan nan nan nan nan nan nan nan nan nan nan nan nan nan nan nan nan nan nan nan nan nan nan nan nan nan nan 245 221 nan nan nan nan nan nan nan nan nan 240 nan nan 270 263 284 279 252
nan nan nan nan nan nan nan nan nan nan nan nan nan nan nan nan nan nan nan nan nan nan nan nan nan nan nan nan nan nan nan nan nan nan nan nan 232 254 nan nan nan nan nan nan nan nan nan nan nan nan nan nan nan nan nan nan nan nan nan nan nan nan nan nan 196 nan 222 nan 224 249 279 nan nan nan nan 229 239 251 264 253 260 nan 246 253 244 266 265 253
nan nan nan nan nan nan nan nan nan nan nan nan nan nan nan nan nan nan nan nan nan nan nan nan nan nan nan nan nan nan nan nan nan nan nan nan nan 242 nan nan nan nan nan nan nan 239 nan 219 203 nan nan nan 150 nan nan nan nan nan nan nan nan nan nan nan nan nan nan nan nan nan nan 239 206 223 237 239 255 255 246 nan 245 233 240 263 256 256 241 240
nan nan nan nan nan nan nan nan nan nan nan nan nan nan nan nan nan nan nan nan nan nan nan nan nan nan nan nan nan nan nan nan nan nan nan 240 nan nan 244 226 nan 238 nan nan nan nan 229 223 nan nan 174 nan nan nan nan nan nan nan nan nan nan nan nan nan nan nan nan nan nan nan nan 250 nan 238 244 258 268 271 253 235 249 233 228 248 232 235 243 222
nan nan nan nan nan nan nan nan nan nan nan nan nan nan nan nan nan nan nan nan nan nan nan nan nan nan nan nan nan nan nan nan nan nan nan nan 267 220 229 225 nan nan nan nan nan 235 nan 232 nan 204 nan nan nan nan nan nan nan nan nan nan nan nan nan nan nan nan nan nan nan nan nan nan 256 nan 263 269 274 273 264 245 255 264 251 247 242 243 246 221
nan nan nan nan nan nan nan nan nan nan nan nan nan nan nan nan nan nan nan nan nan nan nan nan nan nan nan nan nan nan nan nan nan nan nan nan 284 nan 221 nan nan nan nan 243 229 nan nan 219 222 213 nan nan nan 171 182 183 nan nan nan nan nan nan nan nan nan nan nan nan nan nan 246 236 234 nan 271 270 269 262 260 271 264 254 252 264 259 253 250 185
nan nan nan nan nan nan nan nan nan nan nan nan nan nan nan nan nan nan nan nan nan nan nan nan nan nan nan nan nan nan nan nan nan nan nan nan 277 273 nan 176 nan nan 245 207 192 nan nan 218 216 205 202 187 172 171 160 170 174 173 nan nan nan nan nan nan nan 227 nan 271 nan nan 257 258 nan nan nan 270 257 267 260 262 262 249 245 249 250 252 251 139
nan nan nan nan nan nan nan nan nan nan nan nan nan nan nan nan nan nan nan nan nan nan nan nan nan nan nan nan nan nan nan nan nan nan nan nan 279 289 297 nan 243 264 268 nan 207 nan 216 212 nan 211 189 165 170 166 nan 164 nan nan nan 166 nan nan nan nan nan 220 240 nan nan 267 274 nan nan 247 nan 276 266 267 259 247 241 241 240 243 238 249 242 127
nan nan nan nan nan nan nan nan nan nan nan nan nan nan nan nan nan nan nan nan nan nan nan nan nan nan nan nan nan nan nan nan nan nan nan nan 244 nan nan 294 263 265 246 235 nan nan 220 213 nan nan nan nan nan nan 168 nan nan nan nan nan nan nan nan nan nan nan nan nan nan 258 268 280 282 nan nan 287 278 259 264 248 246 252 245 243 244 266 275 66
nan nan nan nan nan nan nan nan nan nan nan nan nan nan nan nan nan nan nan nan nan nan nan nan nan nan nan nan nan nan nan nan nan nan nan nan 260 243 255 265 262 nan 260 241 nan 229 nan nan 203 nan nan nan nan 181 nan nan nan nan nan nan nan nan nan nan nan nan nan nan nan nan 285 nan nan nan nan 284 305 286 262 255 253 247 236 254 266 265 317 314
nan nan nan nan nan nan nan nan nan nan nan nan nan nan nan nan nan nan nan nan nan nan nan nan nan nan nan nan nan nan nan nan nan nan nan nan nan nan nan 241 nan 258 239 226 241 227 212 215 210 209 206 200 192 nan 185 nan nan nan nan nan nan 175 nan nan nan nan nan nan nan nan nan 300 nan 261 nan nan nan 262 267 266 275 285 285 277 276 275 284 286
nan nan nan nan nan nan nan nan nan nan nan nan nan nan nan nan nan nan nan nan nan nan nan nan nan nan nan nan nan nan nan nan nan nan nan nan nan nan nan nan nan nan 248 249 258 267 248 228 nan nan 208 204 nan 196 nan 188 nan 159 nan 178 189 177 174 168 nan nan nan nan nan nan nan nan 265 268 264 259 nan 277 282 276 274 281 295 275 268 261 270 269
nan nan nan nan nan nan nan nan nan nan nan nan nan nan nan nan nan nan nan nan nan nan nan nan nan nan nan nan nan nan nan nan nan nan nan nan nan nan nan nan nan nan nan nan nan nan nan 231 219 nan nan 201 202 200 189 nan nan nan nan 193 182 172 170 170 185 213 214 202 196 nan nan 240 241 245 258 260 265 277 285 273 271 275 263 269 265 241 263 251